Theta_e
317 316 318 318 319 320 320 321 321 322 323 324 323 323 323 324 324 324 324 324 324 325 326 326 325 325 325 324 324 324 316 302 300 298 298 299 310 322 321 323 323 323 322 309 300 298 296 295 296 297 296 294 296 296 296 296 295 290 288 282 281 282 284 284 286 285 287 288 288 291 292 292 290 293 296 298 296 295 294 294 296 297 298 298 296 298 298 300
317 317 317 319 319 320 321 321 322 323 323 323 323 324 324 324 324 324 324 324 325 326 326 325 325 324 324 323 324 324 305 301 297 296 299 309 323 325 325 325 324 323 317 301 300 298 295 294 294 296 294 292 295 295 298 295 294 290 283 285 283 280 284 288 288 288 290 289 289 291 291 291 291 293 294 293 291 292 293 294 294 296 298 298 297 298 299 299
317 318 319 319 320 321 321 322 322 323 323 323 324 324 325 324 324 324 324 324 325 325 326 326 325 323 323 323 322 322 307 297 296 293 299 321 323 325 326 325 324 324 308 304 301 302 299 297 295 295 292 293 291 294 295 293 296 289 287 282 280 284 287 288 289 290 290 291 289 290 291 290 291 293 295 292 290 290 292 293 292 294 296 297 296 296 298 298
319 319 320 320 321 321 321 322 322 323 323 324 324 324 324 324 324 324 324 324 325 325 326 325 325 323 322 322 321 309 300 296 293 295 299 316 322 325 326 326 324 318 304 307 303 306 302 299 296 295 294 293 291 291 292 293 290 291 287 283 283 285 287 288 289 290 290 291 290 290 291 289 291 293 294 291 290 290 292 294 296 295 296 298 296 296 296 297
319 319 319 320 320 321 321 322 323 323 324 324 324 324 324 324 324 324 324 325 325 325 325 325 325 323 322 321 317 308 298 290 291 299 302 318 323 323 324 324 325 304 305 303 304 302 301 298 295 295 294 289 290 290 290 291 291 290 287 285 286 287 287 287 289 289 289 290 290 289 290 289 292 293 292 290 289 289 292 295 296 298 299 298 296 296 296 297
318 318 319 319 320 321 321 322 322 323 323 323 324 324 324 323 324 324 325 325 325 326 325 326 325 324 322 320 306 302 296 281 295 298 315 319 320 321 321 323 323 305 309 303 301 300 295 293 294 292 290 291 290 290 290 293 295 288 285 287 285 287 289 289 290 290 289 290 289 288 290 292 291 290 291 292 292 295 295 294 296 297 299 299 299 297 296 296
318 318 318 319 319 320 321 321 322 322 323 323 324 324 323 323 324 324 325 325 326 325 326 325 324 323 321 319 306 296 291 291 296 300 312 318 319 317 317 320 318 305 303 299 296 296 293 293 293 291 292 291 290 289 293 295 293 292 287 287 288 288 289 289 290 289 288 289 289 290 291 291 289 288 289 290 295 297 297 294 295 297 298 298 296 296 296 296
317 318 318 319 319 320 320 320 320 322 322 323 323 324 325 324 324 324 324 325 325 326 324 325 324 323 318 303 301 294 290 293 299 300 311 315 307 305 307 304 305 303 300 298 297 295 296 294 294 294 290 291 291 293 293 294 291 290 287 289 288 290 288 288 287 287 287 288 288 289 289 289 289 289 288 291 294 295 296 296 295 295 295 295 295 296 296 296
318 318 318 319 319 319 319 319 319 321 322 323 324 324 324 323 323 323 324 325 326 325 324 324 322 321 319 302 296 291 290 297 300 303 301 301 301 299 300 303 303 300 298 296 298 298 296 293 295 295 291 292 295 294 290 290 285 290 289 290 288 288 289 288 289 288 288 289 289 289 288 287 288 289 289 293 295 296 295 293 295 295 294 295 296 297 297 297
318 318 319 319 319 318 318 318 318 322 322 323 323 323 324 323 323 323 323 324 324 324 324 324 324 317 308 301 292 288 294 299 300 301 301 300 301 300 299 299 299 299 298 296 297 297 296 296 298 298 295 294 294 291 290 290 288 291 289 290 290 289 288 289 289 288 288 289 288 288 286 286 287 290 287 291 293 292 293 291 292 293 294 296 296 296 296 297
318 319 319 318 318 319 318 320 321 321 321 322 323 324 325 324 322 322 322 323 324 324 324 322 320 314 299 297 289 289 300 302 301 300 301 300 301 300 299 299 300 299 296 296 298 297 299 297 296 299 298 294 294 290 291 290 293 292 291 290 289 289 290 288 287 287 288 289 287 288 288 288 287 288 288 293 295 292 290 291 290 291 293 295 295 296 296 296
319 318 318 318 319 319 319 320 320 321 322 322 323 324 324 322 322 322 323 323 324 324 322 322 320 305 297 295 293 296 302 303 301 300 301 301 301 301 301 299 300 302 299 298 299 299 298 299 301 299 292 297 290 292 290 292 294 292 291 287 286 285 287 288 287 288 289 288 289 287 287 284 286 286 292 294 294 291 290 291 291 290 291 292 294 295 295 296
318 318 317 318 318 318 320 320 320 321 322 323 323 322 322 322 321 321 322 322 321 322 321 323 316 307 301 294 297 301 299 300 301 302 301 300 301 301 300 300 300 302 301 299 299 301 301 298 298 296 296 293 290 287 291 295 293 293 291 288 288 284 284 289 288 288 289 289 289 290 280 282 283 288 291 293 290 289 289 290 291 291 291 291 292 292 294 295
317 318 318 319 320 320 319 320 321 321 322 322 322 321 321 322 321 321 322 319 321 322 322 324 309 301 296 292 299 302 302 303 303 302 299 300 301 301 300 302 301 299 301 301 300 300 301 299 299 296 297 294 290 296 292 288 290 287 287 284 277 280 279 285 287 286 289 290 288 290 280 284 289 290 290 290 289 289 289 291 291 291 291 292 291 291 292 294
317 317 318 319 320 319 320 320 321 321 321 321 320 320 321 319 320 320 321 319 317 321 320 318 308 303 293 296 301 302 315 302 300 299 299 300 298 300 300 301 302 300 297 300 300 300 302 299 297 294 292 295 295 293 287 283 283 285 282 276 277 277 280 286 288 287 287 289 289 288 277 282 288 291 293 290 290 291 292 293 293 292 292 292 292 292 292 293
317 317 319 319 319 319 319 319 319 319 320 319 319 319 320 320 319 320 321 318 319 319 310 306 303 298 292 292 300 310 299 297 299 300 298 300 300 298 298 298 299 297 299 300 300 300 300 297 294 291 293 292 286 285 279 279 278 280 281 275 277 277 278 284 286 287 288 288 289 288 284 285 287 292 293 292 292 292 290 291 291 291 291 291 291 292 292 293
317 318 319 319 319 319 319 319 318 320 320 319 319 320 319 319 319 320 319 319 311 316 304 303 301 300 293 298 302 296 295 297 299 300 300 299 300 299 299 297 297 296 298 297 299 301 298 296 294 294 290 287 284 280 277 273 276 274 277 277 278 277 280 281 286 287 287 288 285 285 283 285 289 291 293 293 291 290 289 290 291 291 291 291 290 290 290 291
317 318 318 318 318 318 319 319 319 319 319 318 318 317 309 317 319 313 310 309 310 305 305 306 300 297 292 296 293 294 297 296 299 298 298 299 300 298 299 297 296 296 296 296 297 295 296 295 292 288 283 285 286 283 280 274 277 278 279 277 279 278 280 282 280 285 287 285 285 283 283 285 288 291 291 292 290 289 289 289 289 289 289 290 289 289 289 290
317 318 318 318 318 319 318 319 319 319 317 319 320 321 319 317 307 301 301 301 299 293 290 293 292 285 285 292 294 295 297 298 299 297 298 299 298 299 298 298 296 296 293 290 293 294 290 287 285 281 281 283 284 282 279 282 280 282 281 281 279 277 280 282 284 286 286 284 283 283 283 286 287 288 290 291 290 288 288 288 289 289 290 291 291 291 291 291
317 317 317 317 318 318 318 319 319 318 318 311 308 307 302 300 293 292 297 300 294 295 294 295 296 296 295 293 295 299 299 300 297 297 298 299 298 297 298 296 295 294 290 287 289 291 289 283 279 278 279 282 283 284 285 284 283 284 282 280 281 278 280 282 284 285 286 284 279 283 283 283 285 286 288 289 288 289 288 288 288 288 288 288 289 290 290 291
317 317 317 317 317 317 318 319 318 317 316 307 306 301 297 294 290 290 291 295 294 296 297 297 295 296 296 295 295 297 293 294 295 296 297 300 296 297 294 294 290 290 290 288 290 292 288 284 283 282 283 284 285 284 284 285 284 284 282 279 280 279 277 284 284 286 285 284 280 281 282 284 285 286 287 288 288 287 287 286 287 287 286 288 288 289 289 290
317 317 316 317 317 317 318 318 318 317 314 304 302 299 298 298 302 298 293 290 296 297 297 295 296 295 295 295 296 295 293 291 293 295 297 300 296 294 293 292 288 288 288 287 284 284 283 283 285 286 285 286 284 284 284 285 284 280 281 279 275 279 280 282 282 283 285 284 280 280 282 284 285 285 286 285 286 287 287 287 287 286 287 288 289 288 289 290
316 316 316 316 317 318 318 318 316 315 305 304 299 296 297 301 302 302 296 291 292 296 295 294 293 292 293 294 295 298 292 290 288 295 296 297 295 294 290 289 288 286 288 288 285 282 282 283 286 286 285 285 283 283 281 280 280 280 279 277 277 279 278 277 281 282 286 281 279 280 280 283 282 283 285 285 285 286 287 287 287 287 286 287 288 288 289 289
315 315 315 317 318 317 319 316 316 305 302 302 300 300 303 300 302 305 300 293 290 294 296 295 296 292 293 294 297 296 293 292 291 294 296 296 292 292 289 290 286 284 286 284 285 286 283 287 287 285 282 285 284 281 282 281 280 280 279 276 276 280 281 280 281 282 282 279 282 281 277 277 277 281 283 286 285 286 287 286 286 286 286 287 288 288 288 289
315 315 315 316 317 318 315 313 303 298 301 300 301 303 300 300 301 305 296 290 286 289 298 298 295 295 296 298 297 298 295 293 293 293 293 295 294 289 290 291 285 284 284 283 282 283 283 287 287 283 282 281 282 282 282 281 279 277 277 281 281 281 280 280 280 280 278 276 281 281 271 271 275 279 281 282 283 284 284 284 285 285 286 286 287 287 288 289
314 315 316 317 317 315 316 304 298 303 302 301 302 302 300 299 302 303 290 280 278 285 293 290 300 293 298 296 297 294 294 288 294 294 296 296 297 294 288 284 288 285 285 283 282 283 285 286 285 285 281 280 280 281 283 281 277 274 281 279 281 280 279 279 279 277 273 274 277 281 274 272 276 278 280 280 280 282 283 282 284 284 285 285 287 287 287 288
314 314 315 316 316 316 301 297 301 299 299 300 302 300 298 300 301 304 296 276 274 286 289 294 295 294 300 294 294 293 281 285 293 296 296 298 294 298 286 284 282 285 288 283 278 280 286 283 283 281 281 280 280 280 282 282 276 277 279 280 281 280 279 279 277 276 276 277 279 279 274 273 271 280 278 278 278 280 279 281 284 284 284 284 285 287 288 288
315 315 315 315 313 313 303 302 305 301 297 302 299 298 299 301 303 297 283 272 272 291 287 289 296 298 297 295 294 289 290 290 287 293 296 297 294 292 289 285 284 285 286 279 275 281 284 284 282 283 280 281 282 283 283 282 281 281 281 281 281 281 280 279 277 276 275 275 273 276 279 274 267 277 279 278 280 279 278 280 282 283 284 284 285 287 287 288
314 314 315 315 314 314 306 305 301 301 304 298 297 299 302 300 295 292 278 272 284 287 299 293 302 294 292 293 289 288 290 292 288 291 294 293 295 291 284 285 285 284 284 283 280 279 284 284 284 284 280 281 282 282 282 283 282 281 281 282 279 278 280 279 275 276 271 271 266 275 278 272 273 278 279 275 279 277 276 278 281 283 283 283 285 286 287 287
315 314 315 315 306 304 302 301 298 301 298 297 298 299 301 295 292 280 270 271 288 280 292 291 290 288 286 285 283 287 288 288 289 290 291 287 291 292 290 290 284 278 280 281 282 284 285 287 288 285 284 285 284 283 282 282 283 283 280 280 278 277 275 275 274 271 267 264 267 275 278 276 269 276 278 278 279 278 278 280 281 282 282 283 283 285 286 287
315 315 312 311 298 300 297 295 301 299 296 298 299 301 296 288 277 271 270 277 288 287 286 285 285 287 283 284 281 285 285 283 287 287 286 287 287 287 286 282 283 277 278 281 279 281 283 283 286 284 288 285 285 282 282 282 283 281 279 278 275 273 274 271 271 268 264 265 269 272 275 276 267 272 276 278 278 277 280 280 281 281 282 283 284 285 285 285
313 313 314 304 303 299 303 298 302 297 298 297 300 293 292 281 280 277 277 289 280 282 282 282 282 283 283 280 281 282 283 282 283 284 282 280 281 282 282 278 276 273 275 276 278 279 282 285 283 284 287 285 281 279 279 279 279 282 278 279 274 266 267 263 267 269 264 264 272 273 277 274 273 276 280 283 283 283 279 282 283 281 283 282 282 284 285 285
311 310 309 304 299 296 297 299 297 299 300 299 293 288 279 275 270 273 273 278 279 284 282 285 283 282 281 278 280 282 282 282 283 283 285 281 280 278 280 282 280 277 273 276 276 276 276 278 282 281 284 285 283 279 278 276 277 281 277 270 266 263 257 258 258 262 262 273 273 276 274 273 274 277 279 279 283 283 283 282 281 282 283 283 283 284 284 285
309 308 300 301 299 299 298 298 298 299 300 296 292 285 283 277 272 284 275 276 281 281 283 281 281 279 280 280 282 282 281 282 282 283 281 279 279 278 279 280 281 279 274 276 275 273 270 271 277 281 280 283 282 282 283 280 278 277 278 278 271 264 265 263 261 263 267 270 276 275 268 264 270 276 279 283 284 284 283 281 281 282 282 281 282 283 284 287
309 304 301 297 296 299 298 297 298 298 291 293 287 278 276 270 272 273 273 277 278 280 281 281 281 277 279 278 280 280 282 278 282 279 280 279 278 276 279 279 281 279 277 273 271 272 277 274 280 282 282 284 284 283 282 282 276 277 278 276 274 272 271 266 262 265 261 267 269 267 269 268 276 281 284 280 279 281 280 282 281 282 283 281 283 285 285 285
306 300 297 296 296 298 297 299 296 301 291 289 286 279 275 273 274 279 278 284 282 281 280 279 278 277 273 275 276 276 281 279 280 276 276 277 279 279 280 280 281 280 276 273 272 271 273 272 276 281 283 282 283 282 282 282 271 277 278 273 277 276 277 267 272 273 269 265 267 265 273 275 277 281 276 279 280 282 280 280 280 281 281 280 283 285 284 286
298 296 299 297 298 299 298 297 300 292 294 289 284 276 273 279 281 279 286 282 282 282 276 274 276 277 274 275 276 275 279 279 277 276 277 280 278 280 279 279 283 281 280 279 272 274 271 276 280 279 281 283 282 282 284 283 281 276 270 274 278 278 275 272 266 262 258 261 267 268 269 271 272 272 278 280 278 282 282 282 282 281 281 282 284 284 284 285
299 295 294 297 301 300 300 298 294 292 288 289 280 285 280 281 283 282 282 281 281 280 274 276 278 280 274 274 276 274 280 277 281 276 278 279 279 281 279 279 280 281 280 277 276 275 278 269 276 277 279 280 280 282 279 283 282 282 280 279 277 267 268 268 264 262 262 262 263 270 268 268 269 274 275 277 278 281 281 282 283 283 283 283 284 284 285 285
293 291 290 296 301 300 300 294 294 292 290 283 274 282 282 280 282 281 282 282 281 280 276 278 276 278 277 273 274 271 273 276 274 278 274 278 275 281 280 280 280 280 279 281 279 278 277 270 274 277 281 280 279 278 272 273 277 281 281 281 279 275 268 267 269 263 264 263 262 267 268 271 271 270 274 278 280 280 281 282 282 282 282 283 283 283 284 284
299 289 288 297 299 298 298 294 295 289 286 281 274 277 282 282 283 282 281 283 281 278 278 279 279 274 276 278 276 276 275 276 276 277 278 279 278 281 280 281 279 280 279 279 281 281 276 275 267 275 277 276 274 275 276 277 274 273 273 270 275 272 274 272 269 269 269 260 260 260 266 272 277 275 279 280 280 281 281 281 281 281 282 283 283 283 283 283
290 288 290 296 299 297 295 296 287 281 278 279 279 281 281 283 284 284 283 283 284 284 280 280 278 277 279 276 275 279 278 276 277 277 278 277 278 274 280 280 279 280 280 281 277 278 271 272 270 273 276 273 277 276 279 278 278 277 274 271 274 270 274 268 269 265 265 268 264 262 268 275 281 283 282 280 281 282 282 281 281 281 282 282 282 283 283 283
286 279 288 298 298 295 294 287 278 277 278 276 280 283 284 291 282 282 281 282 282 283 282 279 280 280 278 280 280 278 279 275 277 275 278 276 281 279 280 277 279 280 278 280 279 280 279 275 272 271 273 277 280 278 279 280 278 277 277 277 273 269 267 267 265 267 263 267 263 267 265 273 280 281 281 281 281 281 282 282 281 282 282 282 283 283 283 284
284 288 295 297 295 293 292 277 278 280 277 282 284 282 282 283 281 282 283 283 283 282 282 283 283 281 281 282 281 279 280 275 278 277 279 277 278 279 279 277 280 279 279 276 278 280 284 270 266 273 276 276 278 276 278 276 280 279 277 276 275 274 274 272 271 267 267 270 268 263 265 274 280 281 281 281 281 281 282 281 281 282 282 283 283 284 284 284
285 289 292 298 295 292 287 278 277 276 278 284 281 283 284 283 282 281 281 281 282 279 282 282 282 282 282 281 280 282 282 273 279 278 278 277 279 279 277 278 280 280 279 279 275 279 271 271 272 266 268 275 274 275 279 277 279 277 276 274 275 274 271 267 268 264 269 274 274 268 266 271 278 280 281 281 280 280 280 280 281 280 281 282 283 284 284 284
286 284 285 291 296 292 282 277 282 278 278 279 278 279 280 282 283 284 283 282 282 279 279 281 283 282 282 282 281 281 281 280 277 277 275 274 276 279 278 276 276 279 280 282 285 279 274 273 270 267 266 266 267 268 271 274 276 278 278 277 273 273 272 273 270 265 268 267 271 263 267 278 279 279 279 280 279 279 280 280 281 281 280 281 283 284 284 284
284 283 282 287 289 288 282 280 280 280 276 272 277 279 278 279 284 283 283 285 282 283 281 283 282 281 279 279 279 278 280 280 278 274 272 277 273 277 279 276 278 279 282 283 280 278 270 272 274 269 267 269 273 275 279 279 277 274 277 278 277 274 271 271 269 266 267 270 269 274 275 275 275 276 277 278 278 279 279 279 279 280 281 281 282 283 284 284
283 284 278 281 282 285 279 281 280 278 278 278 278 279 276 280 280 283 285 283 283 283 283 282 281 280 280 278 278 278 279 279 277 276 274 272 270 274 276 278 279 280 284 280 279 271 267 269 274 275 273 276 278 277 279 278 276 277 276 276 277 276 273 270 268 270 276 270 268 275 275 273 274 276 277 277 278 279 280 279 279 280 280 281 281 282 284 284
283 283 283 286 285 281 277 281 279 281 280 278 278 281 278 277 278 275 282 284 283 282 284 282 279 281 280 281 281 274 280 277 273 274 271 270 270 274 276 280 278 281 281 277 275 273 270 269 268 270 270 275 277 277 278 277 277 277 276 275 275 276 275 271 271 275 275 267 269 274 275 274 275 276 277 278 278 278 279 280 280 281 281 281 280 280 281 282
283 282 283 284 282 278 279 283 281 281 282 278 280 281 278 277 278 281 280 282 280 280 281 276 279 279 279 279 280 276 277 272 272 269 271 272 272 275 270 273 280 278 278 275 274 269 270 266 265 267 272 276 277 277 277 276 275 275 273 276 276 275 274 274 274 275 274 272 275 275 275 275 277 276 278 278 280 280 280 281 281 280 279 279 279 279 280 279
283 282 284 280 279 276 277 278 279 280 282 281 277 281 281 281 281 282 282 281 275 280 280 279 279 280 279 280 279 276 278 278 276 274 271 272 276 271 271 274 273 273 275 276 273 274 273 269 274 268 270 275 277 275 273 275 273 275 276 275 275 275 274 275 274 275 275 274 275 274 273 273 278 280 279 281 281 281 281 280 279 279 278 278 278 278 278 278
283 278 286 286 281 279 278 274 277 277 274 279 277 282 282 280 281 281 281 282 282 281 281 281 280 280 278 280 280 280 280 280 279 280 279 277 276 275 275 274 278 275 273 271 272 270 270 269 268 265 271 274 276 275 276 276 276 273 273 273 274 273 270 273 272 275 274 272 274 273 271 271 276 280 280 280 280 279 278 278 278 277 277 277 277 277 277 277
282 284 282 283 279 280 278 275 276 277 277 279 281 281 281 282 282 282 281 283 281 283 282 283 281 282 277 278 278 281 280 280 281 282 281 280 278 278 278 278 278 276 272 271 268 271 267 267 270 266 271 271 278 277 276 276 271 264 269 273 274 274 274 274 276 277 276 276 271 269 270 275 277 279 277 277 277 277 277 277 276 277 277 277 276 276 277 277
Wind_Speed
6 6 7 7 7 8 8 8 9 9 9 9 10 10 10 10 9 10 9 9 9 9 9 8 8 8 6 5 5 7 6 4 5 5 7 4 6 9 10 10 9 9 8 4 5 6 5 5 7 8 8 3 1 1 1 2 1 2 1 2 2 5 2 3 3 4 1 1 2 4 7 6 3 2 2 1 3 3 2 4 4 5 7 4 3 1 2 9
6 7 7 8 8 8 8 9 9 10 10 10 10 10 10 9 9 10 9 9 8 9 8 7 7 7 4 4 4 4 4 2 3 4 1 5 6 8 10 9 7 5 6 2 4 3 3 6 4 7 5 2 1 1 1 1 1 2 1 1 7 4 4 3 2 3 1 5 4 5 4 6 8 6 2 3 4 5 5 6 3 7 9 7 4 1 7 10
7 7 8 8 8 9 9 9 10 10 10 10 10 10 10 10 9 9 9 9 9 8 6 6 6 5 5 4 4 4 1 3 2 4 4 4 7 8 9 8 6 3 0 1 0 1 1 2 2 4 2 1 3 1 1 0 0 2 2 4 6 5 2 3 3 3 5 2 3 4 5 5 3 5 1 4 6 2 11 10 5 9 14 11 5 3 6 10
7 8 8 9 9 9 10 10 10 10 10 10 11 11 10 9 9 9 9 9 9 8 5 5 5 5 5 5 5 2 4 2 2 4 4 7 7 9 8 7 5 2 1 1 1 0 1 1 1 1 0 1 3 2 1 1 1 1 2 3 2 2 0 2 4 3 4 4 2 4 0 3 5 4 4 2 2 10 12 11 14 16 17 14 7 6 6 9
8 8 9 9 9 9 10 10 11 10 10 11 11 10 10 9 8 9 9 8 8 7 6 5 4 3 2 3 5 1 4 2 1 2 7 10 11 13 8 5 4 2 1 0 1 0 0 1 0 1 1 2 2 2 0 1 1 3 4 2 2 0 1 5 3 5 2 3 3 1 4 6 1 0 5 4 8 11 10 15 14 15 13 10 8 9 8 10
8 9 9 9 9 10 10 10 10 10 10 10 10 10 9 9 8 8 8 8 8 7 6 4 4 4 2 3 1 3 2 1 1 4 8 11 13 13 11 3 6 3 1 2 1 2 3 4 2 1 1 0 1 0 1 0 1 2 2 2 3 3 3 1 1 2 1 1 3 3 5 1 2 3 5 7 14 16 6 4 9 13 13 11 8 7 9 11
9 9 9 9 10 10 10 10 10 10 10 10 10 10 9 8 7 7 7 7 7 7 6 4 3 4 4 1 2 8 5 1 1 8 10 11 13 12 10 1 7 1 1 3 4 3 1 2 1 1 1 1 1 0 1 2 3 1 4 0 3 4 4 3 2 3 1 6 2 5 1 2 1 6 1 6 17 19 10 4 6 9 11 8 5 8 13 14
8 8 8 8 9 9 10 10 10 10 10 10 10 9 8 7 6 6 7 6 6 6 7 5 2 2 3 1 1 2 3 1 6 6 8 11 12 11 5 4 1 0 1 1 1 2 0 3 2 1 2 1 1 1 3 1 2 2 2 1 3 1 4 3 4 4 3 4 4 2 3 5 5 4 5 13 15 13 13 7 7 5 5 5 7 9 11 12
7 7 7 8 8 9 9 9 9 10 10 10 9 9 9 8 7 6 6 5 4 5 5 4 2 1 1 2 3 3 2 3 6 8 7 8 10 8 6 3 1 1 0 2 2 1 2 1 0 1 2 1 0 0 2 1 5 2 3 0 2 3 3 4 3 5 4 3 1 1 6 5 6 6 8 21 20 16 7 6 10 8 7 8 10 11 11 12
6 6 6 6 7 8 8 8 9 9 10 10 9 9 8 8 7 6 6 4 3 2 4 2 1 2 3 3 3 6 4 8 5 5 5 6 8 9 8 3 4 4 1 3 1 5 2 0 1 2 5 2 1 0 0 2 2 1 2 2 3 5 4 2 4 2 2 2 0 2 5 4 3 2 9 7 10 4 2 7 7 7 12 14 11 9 9 11
5 5 5 6 7 7 7 8 8 9 9 9 9 8 8 8 7 6 5 5 4 3 2 3 1 0 3 2 5 2 3 3 1 3 6 6 8 8 5 7 3 3 2 3 3 1 0 3 3 1 1 2 1 1 1 1 0 2 1 5 5 8 4 5 5 6 2 3 1 4 6 5 3 1 12 16 13 2 5 8 6 6 11 12 13 12 10 10
4 4 5 6 6 7 7 8 8 8 8 8 8 8 7 8 7 6 5 5 4 2 2 2 1 2 4 6 6 1 2 4 3 4 5 4 5 4 4 0 2 2 1 1 2 1 3 1 3 0 1 0 1 1 1 0 1 1 2 4 6 7 5 5 3 3 3 3 1 2 5 5 1 6 16 17 9 6 6 9 11 8 10 11 10 9 9 12
3 4 4 5 6 6 7 7 7 7 7 8 8 8 8 7 6 5 5 5 1 4 4 4 2 3 2 4 1 5 3 3 4 8 6 2 4 1 1 0 2 0 1 2 1 1 1 3 2 4 0 2 0 1 1 1 1 1 2 1 7 8 5 4 1 1 1 3 1 1 7 10 8 15 14 11 5 6 6 8 9 9 8 8 8 8 9 9
3 4 5 5 6 6 6 7 7 7 7 7 8 8 8 7 6 5 4 5 8 2 3 4 2 3 2 0 6 4 2 0 3 5 5 5 6 8 7 6 4 1 0 0 2 1 4 4 10 5 2 3 1 1 2 4 3 1 2 3 1 6 4 5 3 2 0 1 2 1 3 10 16 13 8 8 4 3 8 12 11 9 9 8 7 7 9 11
4 4 5 5 5 6 6 7 7 7 7 8 8 7 7 8 7 7 6 7 3 2 2 3 1 1 3 1 4 7 2 2 5 4 3 7 5 8 8 9 10 8 3 1 1 0 3 3 3 3 1 0 1 2 4 3 4 3 5 4 5 4 9 13 6 2 1 2 3 1 3 10 14 18 11 2 3 7 14 15 13 10 9 8 7 7 9 11
4 4 5 5 6 6 7 7 7 6 7 7 7 7 7 6 8 7 7 6 7 6 1 1 5 7 4 2 0 2 3 3 6 5 1 3 2 3 4 6 5 4 6 1 1 1 4 6 6 1 1 4 7 2 4 4 4 5 5 5 5 4 5 12 1 2 1 2 1 2 7 10 13 11 14 7 8 9 10 13 11 10 9 8 7 7 7 8
3 4 5 5 6 6 7 8 8 8 8 7 8 8 8 7 6 6 1 0 4 2 2 0 0 2 2 3 1 3 3 3 4 3 6 3 1 1 4 4 2 8 7 3 4 1 4 3 2 1 5 6 0 2 6 7 6 5 3 2 1 3 7 6 9 2 4 0 4 1 2 10 16 20 17 17 8 9 8 10 11 10 7 7 6 5 5 6
3 4 5 6 7 8 8 8 7 6 7 8 5 5 4 9 11 10 7 7 2 5 3 2 3 3 1 5 3 5 3 5 7 6 3 5 2 4 1 1 2 6 3 2 4 3 3 0 4 1 4 6 8 9 10 4 3 5 5 5 6 4 5 8 5 5 7 3 2 2 4 14 16 16 17 15 7 7 7 7 7 6 6 7 5 5 5 5
3 4 5 6 6 6 5 6 5 6 9 7 4 4 4 4 4 4 6 5 3 3 3 6 6 3 0 5 5 6 5 4 4 5 11 9 3 0 0 1 2 3 3 4 2 2 4 3 6 7 9 9 8 5 3 1 1 3 3 4 4 4 8 8 6 3 4 6 7 3 7 13 17 17 18 16 10 5 4 5 7 8 8 8 8 7 7 6
3 3 4 5 5 4 5 4 4 5 9 7 6 2 3 2 4 3 8 8 5 3 2 0 0 2 2 5 6 8 4 4 4 3 9 3 5 6 3 2 2 6 4 3 6 3 2 9 7 3 4 5 5 2 2 1 4 1 1 1 8 4 8 6 5 4 3 6 3 5 6 7 13 13 12 12 7 7 7 7 7 6 7 7 7 7 7 8
3 3 4 4 4 3 4 4 4 5 4 2 1 3 1 1 1 2 1 1 1 0 2 1 1 0 1 2 4 6 5 4 2 5 6 6 2 1 4 3 5 9 8 3 1 3 8 9 7 2 3 4 6 3 1 1 1 1 3 2 8 4 6 7 4 3 4 7 7 2 8 12 8 7 9 9 8 8 5 5 6 5 5 5 7 8 6 2
3 3 4 4 3 3 3 3 3 3 4 1 4 3 1 1 0 0 2 2 2 1 3 2 1 2 3 1 2 3 4 2 9 10 5 7 7 4 5 8 4 6 8 6 5 7 7 8 4 4 4 4 2 2 1 1 1 1 1 3 3 7 5 10 2 3 5 5 8 5 9 11 9 8 8 7 4 3 4 3 1 5 6 5 5 5 6 8
3 3 3 4 4 3 4 4 2 2 1 3 3 3 1 0 2 1 3 4 2 1 3 3 4 3 4 4 1 2 3 7 4 10 11 7 7 6 2 6 7 2 5 6 9 4 8 5 4 3 1 3 3 5 5 5 2 2 6 6 7 5 7 9 2 7 15 0 4 5 8 10 6 3 5 3 4 1 2 3 2 2 4 4 3 3 6 6
3 3 3 4 4 4 4 5 2 2 3 4 5 3 1 2 2 1 1 0 1 1 1 0 0 0 2 3 2 4 2 2 2 14 7 5 5 3 3 3 3 5 6 4 7 9 4 2 1 3 3 2 2 3 6 7 9 5 1 2 4 7 4 3 8 9 9 3 1 6 5 5 3 5 6 6 5 4 4 5 3 4 3 2 0 2 2 4
2 3 3 3 4 4 4 3 3 1 2 3 1 0 2 3 1 1 2 1 4 2 2 0 3 0 3 2 3 1 0 0 2 3 3 4 7 4 1 1 3 5 2 0 5 7 3 1 1 3 3 6 5 5 4 4 8 7 3 2 4 4 6 6 5 10 8 4 2 5 5 2 4 3 4 6 6 5 4 4 4 5 5 4 5 3 2 1
2 3 4 3 3 3 5 3 1 0 0 0 1 1 3 2 1 1 6 3 1 4 4 5 1 3 2 3 4 0 1 4 1 2 1 2 3 1 1 4 2 6 4 2 3 3 0 2 4 1 2 4 5 3 1 2 4 3 7 2 2 4 4 6 8 5 6 4 4 3 5 8 5 6 3 3 5 5 6 3 4 4 4 4 3 3 2 1
3 3 3 2 2 4 3 2 0 2 0 1 1 4 3 2 2 1 1 4 5 2 3 2 1 2 3 3 2 1 4 4 5 2 4 4 3 1 5 4 3 0 1 1 4 2 3 5 7 5 7 7 6 8 2 2 2 3 2 1 1 6 8 6 1 1 3 2 5 3 2 2 7 10 3 3 5 3 6 5 6 5 4 5 4 3 2 2
3 3 3 3 2 3 1 2 1 1 1 1 3 3 2 3 0 3 5 3 3 2 3 4 1 3 5 7 9 6 3 5 3 6 5 5 1 3 8 2 2 3 4 4 5 4 2 6 5 6 5 6 6 3 4 0 1 5 5 2 8 7 6 2 0 1 1 1 4 5 1 2 3 10 5 0 4 4 5 6 6 6 5 5 4 3 3 4
4 2 2 1 3 5 3 2 1 1 1 3 4 3 2 1 4 4 4 4 2 2 3 0 2 2 9 7 8 3 2 4 3 2 8 4 11 2 6 4 2 0 2 4 4 2 2 1 2 1 3 6 5 5 1 3 2 4 3 6 1 1 1 1 1 1 2 2 4 1 1 1 9 9 8 2 1 5 4 6 6 6 6 5 3 3 3 4
1 1 1 0 1 2 2 2 4 1 2 3 3 2 1 3 2 2 3 3 1 2 2 3 4 6 4 4 3 8 7 4 1 5 6 5 13 8 2 1 1 3 4 5 6 2 2 4 3 2 1 1 4 5 1 3 4 7 3 4 4 4 3 2 5 2 3 1 4 2 2 3 5 9 7 2 4 2 5 6 6 7 6 4 3 3 4 5
2 2 2 3 0 0 1 1 1 0 2 2 2 1 3 8 3 5 3 1 1 1 3 4 2 4 6 8 6 6 2 2 6 4 4 4 11 6 5 2 6 5 6 8 5 9 2 1 0 1 1 3 1 6 1 1 0 4 5 5 7 2 9 2 5 4 2 7 5 3 2 2 2 8 6 7 7 5 6 7 6 7 6 6 4 4 5 5
7 7 5 6 0 1 1 1 1 1 1 2 1 4 3 1 8 8 1 5 1 4 2 4 2 1 5 2 5 6 4 6 3 4 5 5 8 14 12 7 4 7 8 8 8 7 1 1 1 6 2 2 2 3 8 4 3 10 6 9 10 7 8 7 8 9 2 3 4 2 4 5 6 10 8 11 10 10 5 8 7 3 6 6 4 5 6 6
11 12 12 6 1 3 0 1 0 2 1 1 4 3 4 8 4 3 2 4 0 1 3 2 4 5 5 2 6 4 2 5 5 4 1 2 7 3 2 7 3 1 1 3 3 9 7 3 5 6 2 1 1 7 8 7 6 9 5 3 6 5 4 2 6 2 5 9 4 2 1 3 5 8 7 7 11 9 8 5 4 6 5 6 6 5 6 6
2 2 8 2 4 2 1 0 0 1 1 3 3 6 9 11 1 1 1 1 1 3 2 2 5 4 4 4 3 3 4 1 4 4 6 3 6 6 7 5 6 7 3 1 6 2 8 8 3 3 2 1 2 1 1 5 4 3 2 1 2 3 0 4 2 3 8 10 14 2 1 5 5 6 2 7 8 9 6 4 4 5 6 5 6 7 6 8
6 9 6 1 2 0 0 1 2 1 7 7 13 7 10 1 1 1 2 2 2 3 2 2 2 2 4 4 3 2 1 2 3 2 8 6 6 2 5 7 7 3 0 1 1 1 1 6 11 2 4 1 2 0 1 1 0 2 1 4 5 3 5 3 6 4 4 7 10 3 4 3 4 6 10 3 5 6 6 6 7 10 7 6 8 6 6 6
4 2 2 3 2 2 1 1 2 1 5 9 12 10 6 2 0 1 1 1 0 1 7 5 3 6 3 5 1 4 7 2 6 2 3 4 0 3 2 1 3 3 3 2 1 2 3 4 3 8 2 3 1 2 1 1 2 2 1 1 1 4 4 1 4 1 2 1 9 2 8 5 7 9 2 6 5 6 5 4 6 7 7 6 7 8 6 7
2 3 6 3 4 3 0 2 1 5 9 10 12 4 2 0 1 2 2 0 1 0 1 2 4 3 4 4 3 8 6 2 2 4 4 0 1 2 3 2 1 2 1 2 3 2 0 10 7 2 3 1 0 1 1 1 1 2 2 2 0 2 4 3 3 5 2 1 8 2 8 7 7 9 4 9 9 12 11 11 9 8 7 8 10 11 11 15
1 2 1 4 5 4 0 0 4 5 6 14 9 6 0 1 0 2 0 1 0 0 3 3 0 5 1 1 6 6 8 6 10 4 0 2 1 1 1 1 3 3 2 2 2 2 1 5 7 2 4 8 3 0 2 0 0 2 4 1 2 3 4 2 2 4 6 6 6 11 5 4 5 10 5 7 10 13 13 14 15 18 20 20 20 20 18 17
3 3 3 4 8 5 1 2 10 8 12 13 1 7 1 0 0 1 4 4 0 1 3 1 0 2 1 1 2 1 2 4 3 2 3 2 3 2 1 2 1 2 4 1 0 1 1 1 8 2 1 4 3 4 4 5 3 1 1 1 1 2 4 0 3 2 4 7 4 11 9 11 5 5 2 9 11 15 17 18 19 23 21 17 17 17 16 16
2 3 3 1 8 4 3 3 10 10 10 10 2 2 2 0 1 1 0 1 1 2 1 1 1 1 3 1 0 2 2 1 0 2 2 1 1 1 2 3 1 7 5 2 0 0 1 1 3 7 4 4 4 1 1 3 5 6 4 3 2 1 3 2 1 2 4 4 4 3 11 9 5 3 7 12 17 18 19 18 17 16 17 16 15 15 14 13
1 5 1 4 12 4 5 17 15 9 7 0 2 3 1 0 0 1 3 2 0 1 1 1 1 1 1 2 1 1 1 1 1 1 0 1 1 3 0 1 2 4 4 0 3 2 1 2 4 8 10 4 8 4 1 1 1 2 2 3 4 2 8 7 11 1 1 0 5 2 13 13 10 8 18 15 14 17 15 15 14 14 15 13 12 12 13 13
2 3 3 8 12 5 11 12 5 1 6 5 2 1 1 2 2 3 1 0 1 0 1 3 0 1 0 1 1 1 1 1 1 0 1 1 0 0 1 3 3 1 1 0 0 1 0 1 1 8 5 8 14 5 1 2 2 2 4 4 1 2 3 1 7 8 3 5 2 3 3 15 4 15 13 12 11 14 15 15 15 14 14 13 13 13 13 13
5 2 2 7 6 8 16 7 3 7 5 0 1 2 1 1 2 2 1 2 0 1 1 2 0 0 1 0 0 0 1 1 1 1 1 1 2 2 3 4 4 3 1 2 1 1 3 0 3 8 8 5 11 4 1 2 1 2 1 1 1 4 3 5 7 4 4 6 4 2 2 10 6 12 12 11 13 12 14 16 14 16 15 15 15 15 15 16
3 3 4 6 5 5 11 5 3 2 3 1 3 1 1 1 1 3 1 1 1 2 1 1 2 1 1 1 0 2 0 1 1 1 3 0 1 4 3 3 2 0 0 1 1 3 2 2 3 7 8 12 5 2 0 2 1 2 5 4 2 1 1 3 0 1 1 11 13 6 11 11 4 13 16 16 21 19 19 19 15 16 18 18 17 13 13 15
4 1 2 7 12 11 6 3 9 7 1 3 1 4 3 2 1 1 0 2 0 1 1 2 0 2 1 1 0 0 1 2 3 1 0 1 2 1 2 4 1 0 1 3 1 2 1 3 1 2 6 10 13 14 16 16 13 10 5 0 2 2 7 6 7 3 6 4 4 3 9 11 9 18 20 20 23 18 18 19 17 14 18 19 17 17 16 15
2 4 7 8 9 8 6 2 6 8 6 2 4 1 1 1 1 2 2 1 1 0 1 1 1 1 2 3 3 3 2 1 1 3 3 2 2 1 2 1 1 0 0 1 3 1 0 1 2 5 6 6 9 9 6 1 7 8 18 17 14 0 1 1 1 3 6 8 9 15 12 15 11 17 18 19 21 19 16 18 19 20 19 20 20 19 17 16
2 6 1 1 4 9 4 6 3 3 2 3 3 0 5 1 2 2 1 1 2 1 1 4 2 3 3 4 2 2 1 4 3 0 3 4 3 3 3 1 1 2 2 2 1 1 1 1 6 6 7 11 10 9 11 3 8 13 13 15 13 14 9 4 4 10 10 9 13 6 16 13 9 15 19 20 20 20 16 17 20 19 17 17 20 21 21 18
6 1 2 1 5 0 5 5 4 6 4 3 1 1 1 1 4 1 3 1 1 1 1 1 7 3 0 0 1 3 9 5 2 4 4 1 4 4 2 2 2 4 1 1 0 1 1 1 6 6 9 10 11 11 13 9 7 10 9 9 12 14 14 11 10 10 9 3 9 13 13 11 11 15 20 17 18 19 19 18 15 16 16 17 20 20 19 16
5 3 1 1 4 1 2 1 3 6 9 4 2 4 2 4 5 0 1 4 2 4 4 1 5 6 3 2 1 1 1 5 6 3 1 4 2 5 4 2 1 2 0 0 0 1 1 4 4 4 6 11 13 10 10 8 5 7 3 9 11 9 8 8 9 7 9 5 8 11 14 11 10 13 15 17 15 14 16 14 15 17 19 21 20 18 16 13
1 2 1 5 7 4 1 1 1 6 7 3 4 3 1 1 2 2 1 2 2 3 2 2 5 6 3 1 1 1 1 3 3 4 4 2 7 1 2 4 3 1 3 0 1 1 1 6 6 2 5 13 11 2 0 3 4 9 7 8 8 9 10 14 8 7 6 4 10 14 15 13 10 13 14 15 12 14 16 18 21 21 22 24 22 19 17 20
2 1 5 9 6 4 2 3 3 4 4 8 6 1 3 1 1 1 0 1 2 1 1 1 3 5 0 0 2 2 3 4 5 11 7 2 5 4 1 2 2 4 5 2 1 3 2 6 2 3 9 12 8 4 10 7 8 4 10 16 17 15 14 15 6 5 5 7 10 12 13 15 16 15 15 17 18 15 19 20 19 20 23 21 18 18 20 23
3 1 5 7 7 3 3 1 1 4 5 1 1 1 1 0 1 0 1 1 0 0 1 1 1 0 3 4 5 4 3 4 8 8 6 6 4 4 2 1 2 0 4 1 1 1 1 1 5 4 8 9 15 11 16 13 4 2 10 12 11 9 12 15 9 4 4 6 8 13 12 14 17 16 17 17 18 19 17 16 20 21 18 17 18 17 19 20
Wind_Direction
302 305 306 304 303 301 300 302 298 299 302 305 305 304 307 311 312 314 315 311 306 310 320 322 332 339 345 337 326 346 360 85 34 26 44 230 222 253 280 288 295 308 326 343 357 34 341 4 350 349 5 30 281 68 238 54 99 61 145 118 282 213 200 221 206 192 219 251 269 206 206 167 238 230 247 63 249 224 260 229 273 292 257 227 257 279 136 141
295 297 295 297 295 295 297 297 298 297 301 302 301 302 305 307 309 306 308 305 307 315 322 335 330 342 342 320 332 347 53 67 71 57 47 253 256 270 283 285 288 305 325 27 47 66 20 333 334 12 19 20 315 135 38 244 87 143 124 111 231 195 235 165 209 231 157 252 218 217 216 194 222 156 228 180 246 220 256 253 233 258 267 273 282 111 133 151
287 290 292 293 294 295 296 295 296 296 300 300 302 302 303 305 306 307 307 309 314 316 325 336 340 345 332 342 330 355 32 19 34 3 303 275 268 283 284 271 266 268 65 352 243 105 197 270 347 15 350 295 356 206 51 245 92 228 133 251 243 212 233 216 209 234 202 238 201 197 234 198 245 169 63 214 239 251 229 233 250 241 247 238 226 170 172 165
289 290 292 293 294 295 295 295 294 299 301 303 302 303 302 302 307 309 306 309 310 314 329 343 337 359 347 343 2 0 67 61 17 272 268 284 299 289 285 256 231 161 112 204 170 119 202 359 28 143 354 58 295 42 89 277 78 273 91 195 234 213 351 257 192 235 256 183 200 203 28 202 252 211 162 226 269 250 245 229 209 221 230 230 204 190 184 184
293 294 295 295 297 298 295 295 299 302 302 300 301 300 301 304 306 304 308 307 312 319 338 326 334 341 345 354 341 98 70 52 269 249 258 303 320 318 321 268 180 130 165 205 326 138 154 290 96 42 91 266 348 17 210 323 163 110 211 203 190 66 241 251 235 235 224 253 206 194 158 227 57 30 224 166 213 248 216 233 214 229 231 224 196 202 187 192
296 295 298 300 298 297 297 298 300 300 299 298 301 301 301 305 306 300 304 312 316 323 329 334 334 321 293 334 47 67 88 54 276 296 293 317 326 322 329 289 141 110 114 19 43 307 43 351 46 23 357 68 305 203 273 245 356 256 311 261 225 218 225 248 245 231 143 340 176 165 227 18 178 245 224 197 222 245 221 202 206 224 233 226 202 180 196 196
295 297 297 298 298 298 298 299 297 296 297 298 295 297 297 305 300 307 311 320 318 325 334 325 283 286 304 12 65 79 96 235 353 265 312 327 318 324 332 89 110 78 72 11 7 19 13 10 97 240 102 42 301 174 285 301 3 159 244 320 278 195 213 214 231 241 215 142 230 209 25 239 248 256 253 211 240 243 256 243 220 220 227 234 207 195 201 201
297 297 297 298 299 298 295 296 297 296 296 295 294 295 297 304 311 304 306 309 315 318 341 312 316 280 347 57 59 356 42 291 273 276 309 329 323 323 351 92 100 45 34 41 279 356 59 48 14 107 56 194 225 145 329 314 18 162 284 239 265 231 247 259 241 277 259 248 256 349 278 249 201 224 353 271 255 255 257 248 259 262 260 243 220 212 210 213
299 300 301 300 296 293 296 300 303 299 297 296 298 298 302 303 307 301 293 289 307 331 341 359 326 6 350 81 102 62 318 244 223 282 329 326 324 328 14 11 359 35 114 66 61 163 114 289 20 175 264 176 220 123 326 46 315 182 222 172 289 268 283 262 294 264 271 278 181 305 263 287 270 280 277 259 270 262 264 243 236 236 245 238 226 217 207 214
300 301 298 293 292 297 301 302 302 297 300 298 297 299 293 300 302 303 294 291 297 321 323 327 6 49 52 76 39 59 270 226 280 277 328 326 327 10 7 8 24 37 56 344 41 49 81 222 151 265 131 113 128 192 203 125 242 169 255 236 260 273 339 300 216 284 286 253 276 241 295 288 313 26 279 278 250 297 264 253 245 222 238 241 231 224 216 211
298 299 297 297 297 295 297 296 294 297 294 295 296 294 290 301 303 303 307 295 290 281 280 309 293 57 53 79 94 96 243 57 256 329 321 344 354 15 334 335 0 60 94 11 40 208 174 192 200 131 50 235 112 304 143 227 108 328 276 332 317 333 283 257 299 284 329 304 201 211 266 268 286 126 242 258 276 65 326 289 275 236 241 242 239 233 228 225
292 290 290 293 290 294 298 297 294 292 290 294 298 297 302 304 306 300 295 287 283 223 192 217 252 92 74 73 89 92 198 221 340 317 335 360 334 280 262 61 28 61 101 55 324 306 205 202 128 66 246 58 311 319 333 261 44 340 28 335 304 353 348 343 271 293 150 262 198 174 292 300 192 223 238 250 275 343 315 285 280 265 252 254 251 244 241 233
278 285 282 284 295 295 293 294 290 291 291 299 300 306 306 301 297 304 298 307 229 166 188 180 114 82 93 29 225 246 290 315 354 343 342 7 314 254 241 148 16 221 137 121 292 321 358 154 98 75 347 94 183 63 222 58 313 343 43 47 336 354 353 335 338 13 132 259 26 2 333 286 257 235 257 271 327 323 310 286 278 278 271 261 257 251 249 246
278 279 280 282 286 289 292 293 293 295 297 296 306 306 300 293 289 296 317 293 287 274 183 198 110 70 86 231 277 269 298 18 344 359 326 322 18 315 346 344 8 61 100 75 255 157 76 81 89 110 135 70 327 303 36 337 25 260 274 65 60 1 295 295 350 293 246 314 33 76 247 287 285 278 251 274 334 320 307 296 288 278 273 267 258 252 247 249
276 278 283 289 295 299 302 297 303 309 306 303 301 292 290 293 308 309 309 318 345 13 312 147 107 70 49 286 274 295 250 49 3 304 301 8 4 337 342 343 334 340 285 204 335 42 117 63 65 38 356 322 351 15 337 24 1 4 48 316 325 56 284 314 341 168 239 320 44 95 262 251 281 291 301 322 332 312 299 293 294 289 278 270 263 254 251 252
274 281 287 309 311 309 309 311 312 310 313 314 308 297 288 294 294 293 284 255 284 349 340 92 356 100 100 25 273 338 39 27 328 310 288 33 11 287 285 299 297 346 19 355 36 87 46 85 63 183 353 11 45 30 14 31 343 3 59 300 317 335 285 336 329 303 322 312 321 166 257 303 297 289 309 304 309 297 289 295 299 298 290 279 267 257 258 269
277 306 320 318 314 315 316 328 335 333 326 322 318 291 281 270 318 312 41 13 6 313 71 40 48 67 78 250 312 24 310 280 283 350 338 332 301 244 346 359 4 342 348 340 27 61 354 64 294 26 47 88 192 64 50 22 337 325 32 350 254 312 330 319 313 44 353 110 273 359 210 252 269 297 304 311 324 312 307 303 309 314 306 301 298 297 297 300
315 322 328 331 329 336 337 337 339 340 326 310 283 286 315 334 356 24 10 17 353 74 80 80 100 43 318 12 28 305 309 301 342 303 304 300 83 12 6 337 331 345 23 20 11 51 331 349 30 177 14 11 20 25 60 347 312 303 337 345 325 306 264 257 315 293 15 7 283 307 272 276 288 300 309 311 335 324 320 324 322 339 3 1 3 349 330 324
326 337 339 337 334 329 339 339 352 350 329 315 330 304 298 27 33 76 59 347 39 349 26 327 25 80 156 293 284 292 307 271 307 30 333 3 339 42 65 98 53 15 352 54 299 44 355 46 24 36 15 353 356 50 104 242 179 276 251 256 253 311 308 314 271 302 47 314 299 272 264 300 306 311 314 321 342 343 346 21 37 36 36 38 36 27 19 8
336 337 324 322 322 337 346 354 3 3 3 16 3 14 15 18 7 344 348 30 68 110 166 238 160 243 308 344 335 294 262 5 42 311 338 351 352 354 56 57 2 60 62 29 308 44 95 67 53 357 313 277 272 237 218 223 186 233 141 173 278 256 279 267 269 257 342 347 264 268 293 291 294 299 303 316 327 43 40 43 41 32 37 37 39 39 26 29
315 315 304 302 324 333 344 357 13 357 35 90 71 63 83 169 69 29 306 303 215 186 33 323 182 125 256 278 310 2 15 325 59 337 339 301 121 31 336 22 19 31 351 299 196 321 67 57 7 265 251 257 262 259 193 4 94 233 275 295 302 293 284 287 297 353 339 47 287 322 335 312 308 313 323 328 34 29 17 47 40 41 39 40 50 43 33 350
282 283 294 300 311 327 335 354 9 28 68 97 69 98 129 183 159 189 116 34 7 68 44 340 23 8 326 276 257 139 83 358 345 350 330 28 334 73 319 76 60 37 325 357 22 20 38 54 301 268 257 271 336 22 39 173 287 355 327 291 335 306 246 295 290 310 341 7 263 331 348 305 306 311 317 358 20 31 6 30 43 64 48 45 42 49 37 37
259 275 294 301 315 323 339 329 14 14 42 37 55 72 108 281 341 285 95 122 63 321 42 17 15 348 335 303 337 66 50 30 325 343 349 7 359 68 356 41 17 343 9 25 74 32 36 337 307 276 352 9 342 14 33 21 87 37 346 31 326 283 12 321 274 351 328 341 280 329 313 290 303 294 338 348 355 314 330 325 334 13 69 67 61 58 60 43
251 284 302 319 317 324 321 323 275 40 29 119 109 138 327 352 335 114 62 80 170 315 64 228 129 132 311 15 321 70 80 326 50 344 342 20 27 290 68 36 32 39 12 355 101 89 133 281 284 359 33 46 334 354 42 23 350 332 177 286 310 327 311 192 301 330 295 355 183 328 334 320 344 19 331 324 330 349 334 333 358 0 341 298 279 27 45 77
274 290 311 318 327 305 293 321 51 344 162 68 41 218 349 341 49 71 96 1 20 347 173 32 104 6 299 291 348 327 249 259 51 243 288 50 339 38 349 171 89 10 16 186 80 71 6 269 260 6 17 33 48 15 34 38 350 330 246 239 265 276 292 291 310 334 12 345 14 28 5 296 311 320 263 289 339 340 319 10 336 321 333 360 32 13 354 357
277 290 299 317 310 315 284 52 279 204 77 194 188 351 328 337 1 152 93 75 46 277 0 7 174 352 163 330 15 81 67 51 282 295 20 328 190 94 29 10 70 8 340 71 98 128 177 342 62 336 48 19 55 60 269 77 336 41 310 187 239 273 295 309 326 29 2 3 296 51 99 300 323 312 283 292 316 303 316 333 297 306 315 331 325 340 333 335
266 279 296 302 317 318 71 233 211 94 347 320 308 320 304 316 306 138 45 1 38 330 17 262 56 15 84 324 348 77 46 305 310 351 22 6 31 336 96 330 9 281 147 134 40 332 16 341 7 30 42 22 12 15 321 77 64 316 250 120 281 317 313 309 340 134 227 270 299 42 113 262 311 295 220 272 298 303 324 311 308 302 299 290 285 298 316 321
255 259 270 275 331 52 191 132 50 127 184 262 306 302 314 312 79 43 79 65 353 327 18 318 45 321 57 311 18 81 157 285 34 337 14 300 44 350 80 33 105 333 322 75 97 261 78 334 18 349 21 21 8 297 293 130 218 248 288 330 306 289 288 277 131 228 244 24 307 341 353 22 261 271 318 349 232 289 283 278 287 290 292 280 286 300 317 323
248 256 264 271 68 73 70 107 117 123 252 266 295 330 335 54 80 111 125 98 270 61 211 32 247 21 339 1 34 15 337 4 92 301 322 343 23 184 40 5 131 97 15 95 137 298 322 155 273 135 67 352 280 298 232 161 5 283 271 309 65 93 93 126 108 95 330 62 296 282 267 358 290 285 321 333 288 283 261 259 267 270 270 281 290 311 318 330
233 283 317 167 72 42 360 45 56 228 309 300 320 318 48 53 36 37 22 54 321 335 13 276 57 300 15 15 330 2 33 347 58 315 21 62 326 21 84 97 112 58 11 5 85 216 259 303 163 96 104 274 294 285 218 200 229 294 19 335 349 36 27 18 72 86 57 43 261 229 252 116 309 278 260 307 287 226 282 307 290 296 305 292 272 281 304 304
113 90 88 36 96 200 67 24 291 228 288 328 298 43 74 41 101 103 65 246 33 296 2 14 330 10 25 39 353 332 18 348 346 31 356 359 6 35 10 12 22 44 19 7 19 350 357 343 44 269 53 318 67 322 358 275 239 34 17 351 350 347 359 32 348 36 63 295 261 246 190 118 200 292 293 234 272 263 228 248 272 298 301 295 304 313 307 300
103 87 82 80 141 35 80 245 266 250 303 279 52 60 73 323 12 59 160 319 77 321 53 299 324 20 356 313 47 343 343 327 351 36 38 16 33 32 4 69 336 17 6 7 334 359 38 89 304 321 244 114 318 32 315 13 356 21 14 18 42 315 19 344 4 360 320 234 258 181 336 340 228 224 258 297 285 290 248 214 233 246 295 294 299 299 298 305
111 106 78 61 85 41 152 222 81 292 295 48 69 52 53 91 57 305 311 326 135 15 293 126 266 352 307 47 347 329 267 41 313 27 73 3 82 42 32 61 324 127 331 317 319 11 289 301 340 313 357 238 71 33 329 1 344 5 35 57 54 10 24 305 278 220 300 281 213 347 204 218 258 291 247 245 279 257 277 253 268 280 282 295 285 293 296 290
17 154 72 353 87 103 201 121 189 314 65 40 72 36 59 59 135 303 290 282 287 356 355 9 320 347 32 75 319 356 13 282 39 348 37 356 48 26 335 358 33 7 76 359 56 334 22 344 307 19 343 348 61 150 251 219 325 271 196 129 159 138 225 298 249 293 280 272 303 342 79 232 354 255 254 272 290 294 272 237 260 269 257 262 282 292 296 349
81 69 104 32 37 357 163 186 121 89 82 74 59 80 88 172 227 224 291 304 303 313 277 330 321 38 336 14 322 343 107 309 38 34 18 40 4 30 352 333 341 83 135 78 294 71 276 231 257 234 238 57 299 256 107 85 20 269 155 97 54 290 144 187 206 223 272 323 321 318 198 206 240 276 298 328 319 332 347 0 354 316 321 339 326 315 327 313
41 357 64 33 32 310 162 148 109 106 96 58 73 45 76 168 132 123 254 187 279 349 305 351 57 37 308 321 319 26 319 49 333 72 1 68 236 38 284 263 1 7 26 92 226 14 7 317 259 316 49 178 208 140 304 153 16 280 55 300 266 188 133 330 333 281 8 27 256 204 310 311 299 308 300 326 2 324 340 344 345 328 309 324 315 313 323 337
26 335 43 333 6 331 225 104 74 80 83 95 91 64 193 308 190 175 297 113 263 183 42 87 327 56 345 327 304 347 318 30 350 72 348 328 342 355 337 303 206 36 66 136 326 204 124 273 309 48 321 10 5 142 289 300 173 56 13 250 249 109 129 123 247 327 48 174 272 27 272 319 20 297 321 345 3 334 348 357 342 333 336 341 336 335 360 9
66 56 125 41 338 325 18 154 89 60 76 75 65 121 306 85 247 191 217 21 20 358 76 77 296 64 330 49 336 351 318 81 322 39 245 0 247 133 98 309 309 80 12 329 120 289 107 335 294 246 246 269 337 67 350 327 22 194 239 216 40 324 349 317 78 331 325 299 285 294 280 257 203 266 348 332 352 336 352 347 350 355 6 13 19 23 22 18
61 76 23 319 340 5 317 86 66 57 71 71 43 86 266 190 228 178 210 146 101 89 71 331 100 1 117 44 262 288 329 38 315 19 66 348 42 140 88 151 311 118 18 14 80 289 17 260 295 297 229 293 332 61 324 291 325 1 5 343 312 138 205 119 223 203 125 263 5 284 325 286 209 223 309 340 348 6 0 2 14 23 22 18 17 17 17 15
22 42 2 308 347 352 1 72 68 47 59 86 181 95 209 88 242 277 23 159 301 77 4 62 9 348 6 232 140 358 300 83 52 284 94 287 264 347 92 7 276 318 3 333 135 355 290 115 261 277 307 7 347 329 276 301 320 330 26 331 345 282 219 145 271 171 233 219 211 276 303 281 273 205 9 8 23 22 22 20 23 22 19 16 15 12 7 5
61 100 265 324 346 335 23 43 41 30 82 233 81 134 16 145 351 337 18 90 295 274 173 163 156 79 242 28 348 232 302 354 306 320 173 310 81 341 192 205 154 327 330 21 48 337 19 356 234 315 347 352 266 223 224 173 186 202 177 237 201 310 319 354 292 17 28 208 255 293 276 282 324 43 47 40 27 27 21 22 22 18 13 9 3 2 0 354
80 50 290 329 346 48 78 59 11 82 89 63 65 95 86 85 55 344 17 18 110 339 12 105 144 128 143 220 219 299 349 311 252 31 252 100 306 123 280 55 136 150 62 341 342 282 135 179 68 292 234 271 274 301 276 238 144 192 152 262 173 127 112 174 276 286 339 234 163 222 300 280 31 49 49 42 33 26 20 15 15 7 2 353 347 347 348 346
48 118 264 333 355 70 72 54 322 37 63 195 276 28 20 45 117 251 70 332 324 94 4 50 208 45 214 274 284 289 188 287 186 273 229 255 266 230 182 157 137 65 101 312 17 327 58 93 344 263 280 267 284 356 48 60 147 341 334 84 78 272 211 206 218 217 257 291 305 304 216 274 74 43 46 32 26 22 17 10 6 355 350 344 338 338 338 337
129 73 350 342 24 95 78 112 90 37 67 324 64 68 328 149 89 2 27 320 66 355 83 322 330 101 325 73 95 353 298 358 231 19 342 118 283 61 168 122 175 152 115 335 86 309 17 294 96 326 348 330 337 345 87 205 75 210 269 248 202 102 11 227 162 57 247 257 264 267 266 272 113 28 27 16 11 5 3 358 355 349 346 339 335 328 327 327
102 327 37 319 9 51 97 179 127 136 159 108 77 32 347 18 112 135 141 11 344 139 60 3 162 296 353 358 5 299 324 88 299 343 65 261 258 33 341 114 25 124 359 310 274 303 182 246 72 11 333 333 330 335 330 329 333 317 291 149 104 29 295 347 300 306 255 279 290 220 252 268 11 13 13 8 0 352 354 346 343 340 340 336 329 326 319 318
32 93 316 7 14 40 65 46 94 123 121 125 49 301 94 51 16 354 118 37 102 320 91 260 346 77 24 26 12 360 336 348 100 289 21 298 306 341 257 132 142 182 351 60 0 27 186 293 162 168 163 224 250 257 274 27 315 320 297 308 309 108 290 179 230 255 239 279 281 266 289 316 8 358 5 353 354 342 340 343 339 336 333 331 327 322 315 310
130 71 34 37 332 47 58 20 37 48 129 157 94 245 21 13 261 1 154 37 4 71 23 57 351 33 336 52 9 314 252 309 341 37 279 288 258 253 294 143 341 282 241 38 335 79 63 323 250 210 223 235 248 269 280 316 275 280 291 296 316 321 316 282 262 272 287 314 279 334 358 346 357 358 353 348 346 336 332 337 333 324 321 322 321 313 306 303
71 251 98 207 118 318 32 359 44 72 22 72 108 82 50 20 21 36 325 104 225 334 112 334 43 73 176 103 5 7 335 331 19 325 332 223 327 325 24 29 53 327 338 356 36 103 130 241 282 137 252 255 262 266 275 284 256 253 283 318 317 321 331 333 307 306 330 244 289 343 343 337 346 355 345 340 338 327 319 311 302 306 306 307 311 310 305 309
111 142 132 336 82 251 153 148 89 89 59 58 108 62 44 72 61 172 167 316 24 350 45 42 331 330 316 277 140 337 317 28 322 283 176 305 33 326 343 348 125 2 71 8 333 181 83 249 251 206 274 283 278 257 265 264 277 296 347 4 349 348 346 343 328 342 342 314 352 334 338 332 344 347 338 322 311 307 306 291 301 311 315 315 313 311 312 324
167 114 59 13 81 106 18 40 66 52 62 4 87 338 115 71 56 341 8 48 12 333 12 77 298 316 303 181 145 51 214 193 225 278 258 47 312 137 239 211 267 332 32 192 52 274 89 279 11 341 343 302 302 267 341 230 243 298 30 8 0 1 358 2 345 338 332 285 342 342 335 333 338 330 314 307 291 293 306 312 316 319 322 325 329 330 336 335
160 148 152 117 61 340 18 24 44 75 61 350 68 303 71 333 91 197 20 262 126 242 343 299 273 311 21 48 176 244 242 208 221 227 234 201 257 225 143 298 101 310 355 359 14 318 47 269 27 48 350 305 311 347 312 309 300 99 31 16 5 3 5 348 334 313 335 318 321 335 345 338 324 317 302 307 311 311 316 317 317 323 326 329 332 334 331 327
73 41 79 106 83 322 67 356 23 63 29 272 127 294 120 280 230 173 77 205 209 228 197 225 235 158 308 11 332 295 255 209 234 245 247 243 270 282 268 236 106 13 317 304 238 316 135 46 345 348 337 289 301 337 322 315 331 21 21 16 348 341 351 338 332 258 311 323 340 349 317 319 313 314 312 314 319 317 314 320 320 320 324 327 328 325 322 319